CTN2738 LDZA-EDDF

Flight info

Callsign CTN2738
Flight time N/A
Altitude 38000
Route PODE1T PODET DCT RADLY DCT SIMBA DCT AKINI T161 DEBHI DEBHI1B
Aircraft A319/M-SDE3FGHIRWY/LB1

Departure

Time 2026-05-07 09:24
Airport Zagreb Franjo Tuđman International Airport (LDZA)

Arrival

Time N/A
Airport Frankfurt Main Airport (EDDF)
Time Latitude Longitude Altitude Speed Heading
2026-05-07 09:05 45.73333 16.05955 350 ft 0 kts 137°
2026-05-07 09:16 45.73335 16.05952 350 ft 3 kts 137°
2026-05-07 09:16 45.73354 16.05928 350 ft 3 kts 137°
2026-05-07 09:16 45.73373 16.05902 350 ft 3 kts 137°
2026-05-07 09:17 45.73381 16.05891 350 ft 0 kts 49°
2026-05-07 09:18 45.73383 16.05894 350 ft 3 kts 49°
2026-05-07 09:19 45.73460 16.06011 350 ft 19 kts 45°
2026-05-07 09:19 45.73491 16.06058 350 ft 19 kts 46°
2026-05-07 09:19 45.73564 16.06167 349 ft 18 kts 46°
2026-05-07 09:19 45.73655 16.06302 349 ft 18 kts 46°
2026-05-07 09:20 45.73740 16.06434 350 ft 18 kts 47°
2026-05-07 09:20 45.73831 16.06572 350 ft 19 kts 46°
2026-05-07 09:20 45.73923 16.06709 350 ft 19 kts 45°
2026-05-07 09:20 45.74000 16.06819 350 ft 19 kts 47°
2026-05-07 09:21 45.74101 16.06983 348 ft 21 kts 47°
2026-05-07 09:21 45.74206 16.07138 347 ft 21 kts 45°
2026-05-07 09:21 45.74307 16.07291 347 ft 21 kts 46°
2026-05-07 09:21 45.74410 16.07445 348 ft 21 kts 46°
2026-05-07 09:22 45.74511 16.07600 349 ft 15 kts 47°
2026-05-07 09:22 45.74569 16.07649 350 ft 9 kts 345°
2026-05-07 09:22 45.74597 16.07622 349 ft 0 kts 314°
2026-05-07 09:22 45.74611 16.07601 349 ft 5 kts 316°
2026-05-07 09:23 45.74672 16.07533 347 ft 11 kts 345°
2026-05-07 09:23 45.74681 16.07474 347 ft 8 kts 244°
2026-05-07 09:23 45.74668 16.07448 347 ft 6 kts 226°
2026-05-07 09:23 45.74477 16.07150 347 ft 82 kts 226°
2026-05-07 09:24 45.73898 16.06273 352 ft 153 kts 226°
2026-05-07 09:24 45.73122 16.05107 877 ft 169 kts 226°
2026-05-07 09:24 45.72292 16.03829 1535 ft 182 kts 227°
2026-05-07 09:24 45.71462 16.02529 2441 ft 182 kts 227°
2026-05-07 09:25 45.70615 16.01207 3176 ft 180 kts 226°
2026-05-07 09:25 45.69778 15.99907 3363 ft 182 kts 226°
2026-05-07 09:25 45.68899 15.98547 3052 ft 193 kts 226°
2026-05-07 09:25 45.67941 15.97066 3059 ft 210 kts 226°
2026-05-07 09:26 45.66951 15.95527 3949 ft 213 kts 230°
2026-05-07 09:26 45.66332 15.93673 4978 ft 213 kts 263°
2026-05-07 09:26 45.66528 15.91629 5969 ft 216 kts 294°
2026-05-07 09:26 45.67482 15.90040 6937 ft 219 kts 326°
2026-05-07 09:27 45.68836 15.89029 7824 ft 224 kts 331°
2026-05-07 09:27 45.70240 15.88080 8670 ft 229 kts 331°
2026-05-07 09:27 45.73091 15.86145 10397 ft 234 kts 330°
2026-05-07 09:28 45.74561 15.85129 11217 ft 238 kts 329°
2026-05-07 09:28 45.76039 15.84103 11976 ft 242 kts 329°
2026-05-07 09:28 45.77546 15.83053 12760 ft 246 kts 328°
2026-05-07 09:28 45.79076 15.81983 13495 ft 251 kts 328°
2026-05-07 09:29 45.80642 15.80887 14211 ft 255 kts 328°
2026-05-07 09:29 45.82238 15.79765 14908 ft 260 kts 328°
2026-05-07 09:29 45.83880 15.78609 15616 ft 264 kts 328°
2026-05-07 09:29 45.85521 15.77453 16305 ft 268 kts 328°
2026-05-07 09:30 45.87188 15.76281 16970 ft 272 kts 328°
2026-05-07 09:30 45.88892 15.75083 17621 ft 277 kts 328°
2026-05-07 09:30 45.90633 15.73856 18263 ft 281 kts 328°
2026-05-07 09:30 45.92403 15.72612 18907 ft 285 kts 328°
2026-05-07 09:31 45.94172 15.71366 19554 ft 288 kts 328°
2026-05-07 09:31 45.95979 15.70093 20191 ft 291 kts 328°
2026-05-07 09:31 45.97787 15.68821 20850 ft 294 kts 327°
2026-05-07 09:31 45.99634 15.67517 21489 ft 296 kts 327°
2026-05-07 09:32 46.01495 15.66199 22096 ft 300 kts 327°
2026-05-07 09:32 46.03356 15.64881 22680 ft 304 kts 327°
2026-05-07 09:32 46.05276 15.63515 22988 ft 318 kts 327°
2026-05-07 09:32 46.07315 15.62058 23278 ft 333 kts 327°
2026-05-07 09:33 46.09426 15.60552 23560 ft 348 kts 328°
2026-05-07 09:33 46.11607 15.59007 23830 ft 362 kts 328°
2026-05-07 09:33 46.13916 15.57377 24095 ft 376 kts 328°
2026-05-07 09:33 46.16307 15.55688 24356 ft 389 kts 328°
2026-05-07 09:34 46.18769 15.53942 24605 ft 402 kts 328°
2026-05-07 09:34 46.21276 15.52161 24967 ft 410 kts 328°
2026-05-07 09:34 46.23851 15.50331 25482 ft 414 kts 328°
2026-05-07 09:34 46.26417 15.48508 25990 ft 417 kts 328°
2026-05-07 09:35 46.29018 15.46650 26490 ft 421 kts 328°
2026-05-07 09:35 46.31638 15.44779 26979 ft 424 kts 328°
2026-05-07 09:35 46.34226 15.42926 27436 ft 427 kts 327°
2026-05-07 09:35 46.36925 15.40990 27874 ft 430 kts 327°
2026-05-07 09:36 46.39599 15.39070 28321 ft 433 kts 327°
2026-05-07 09:36 46.42282 15.37142 28751 ft 436 kts 327°
2026-05-07 09:36 46.44993 15.35189 29159 ft 439 kts 327°
2026-05-07 09:36 46.47172 15.33616 29493 ft 442 kts 326°
2026-05-07 09:37 46.50215 15.31409 29984 ft 444 kts 326°
2026-05-07 09:37 46.53268 15.29193 30417 ft 447 kts 326°
2026-05-07 09:37 46.56079 15.27155 30797 ft 450 kts 326°
2026-05-07 09:37 46.58860 15.25138 31189 ft 452 kts 325°
2026-05-07 09:38 46.61619 15.22932 31556 ft 451 kts 322°
2026-05-07 09:38 46.64269 15.20492 31868 ft 451 kts 318°
2026-05-07 09:38 46.66801 15.17822 32230 ft 450 kts 314°
2026-05-07 09:38 46.69191 15.14952 32569 ft 448 kts 310°
2026-05-07 09:39 46.71523 15.11890 32908 ft 449 kts 309°
2026-05-07 09:39 46.73792 15.08845 33227 ft 451 kts 309°
2026-05-07 09:39 46.76122 15.05705 33510 ft 454 kts 309°
2026-05-07 09:39 46.78427 15.02603 33794 ft 456 kts 309°
2026-05-07 09:40 46.80789 14.99431 34041 ft 459 kts 309°
2026-05-07 09:40 46.83123 14.96295 34322 ft 461 kts 309°
2026-05-07 09:40 46.85464 14.93150 34546 ft 463 kts 309°
2026-05-07 09:40 46.87828 14.89975 34744 ft 465 kts 309°
2026-05-07 09:41 46.90184 14.86804 34904 ft 467 kts 309°
2026-05-07 09:41 46.92575 14.83582 35049 ft 468 kts 310°
2026-05-07 09:41 46.94960 14.80365 35181 ft 469 kts 310°
2026-05-07 09:41 46.97349 14.77142 35325 ft 469 kts 310°
2026-05-07 09:42 46.99751 14.73895 35462 ft 470 kts 310°
2026-05-07 09:42 47.02137 14.70668 35577 ft 471 kts 310°
2026-05-07 09:42 47.04549 14.67403 35696 ft 472 kts 310°
2026-05-07 09:42 47.06931 14.64171 35807 ft 473 kts 311°
2026-05-07 09:43 47.09341 14.60897 35905 ft 474 kts 311°
2026-05-07 09:43 47.11755 14.57624 36019 ft 474 kts 311°
2026-05-07 09:43 47.14158 14.54378 36135 ft 476 kts 311°
2026-05-07 09:43 47.16576 14.51105 36236 ft 477 kts 311°
2026-05-07 09:44 47.19005 14.47806 36356 ft 477 kts 311°
2026-05-07 09:44 47.21432 14.44499 36466 ft 478 kts 311°
2026-05-07 09:44 47.23872 14.41165 36561 ft 479 kts 311°
2026-05-07 09:44 47.26305 14.37835 36904 ft 479 kts 311°
2026-05-07 09:45 47.28717 14.34528 37036 ft 476 kts 311°
2026-05-07 09:45 47.31127 14.31212 37369 ft 470 kts 311°
2026-05-07 09:45 47.33458 14.27994 37760 ft 462 kts 311°
2026-05-07 09:45 47.35783 14.24779 37915 ft 460 kts 311°
2026-05-07 09:46 47.38121 14.21547 37935 ft 459 kts 311°
2026-05-07 09:46 47.42743 14.15151 37946 ft 458 kts 311°
2026-05-07 09:47 47.47393 14.08707 37944 ft 458 kts 311°
2026-05-07 09:47 47.51999 14.02309 37949 ft 460 kts 311°
2026-05-07 09:48 47.59776 13.91461 37948 ft 467 kts 311°
2026-05-07 09:48 48.12044 13.17399 38023 ft 469 kts 311°
2026-05-07 09:49 48.14417 13.13987 37993 ft 468 kts 311°
2026-05-07 09:49 48.17353 13.09774 37975 ft 468 kts 311°
2026-05-07 09:50 48.22005 13.03051 37970 ft 466 kts 310°
2026-05-07 09:50 48.26389 12.95960 37972 ft 463 kts 307°
2026-05-07 09:51 48.30627 12.88757 37964 ft 463 kts 307°
2026-05-07 09:51 48.34837 12.81584 37967 ft 463 kts 307°
2026-05-07 09:51 48.36981 12.77932 37843 ft 464 kts 307°
2026-05-07 09:52 48.39095 12.74332 37640 ft 461 kts 307°
2026-05-07 09:52 48.41195 12.70746 37423 ft 459 kts 307°
2026-05-07 09:52 48.43294 12.67160 37203 ft 457 kts 307°
2026-05-07 09:52 48.45365 12.63621 36979 ft 455 kts 307°
2026-05-07 09:53 48.47425 12.60091 36761 ft 454 kts 307°
2026-05-07 09:53 48.49490 12.56553 36545 ft 452 kts 307°
2026-05-07 09:53 48.51528 12.53053 36320 ft 449 kts 307°
2026-05-07 09:53 48.53598 12.49492 36092 ft 448 kts 307°
2026-05-07 09:54 48.55587 12.46064 35872 ft 446 kts 307°
2026-05-07 09:54 48.57606 12.42582 35650 ft 444 kts 307°
2026-05-07 09:54 48.59628 12.39091 35429 ft 442 kts 307°
2026-05-07 09:54 48.61633 12.35625 35206 ft 441 kts 307°
2026-05-07 09:55 48.63255 12.32814 35026 ft 439 kts 306°
2026-05-07 09:55 48.65175 12.29474 34810 ft 437 kts 306°